Вернуться в каталог

AIRSAT-06

АктивенНаукаSSO
NORAD 63297·PAYLOAD·🇨🇳 China
Это название спутника еще не подтверждено официальными источниками.

Запущен Mar 17, 2025 с Jiuquan Satellite Launch Center

Loading…

Ближайшие Пролёты (ближайшие 24 часа)

TLE

СвежийSource: Space-Track

Эпоха: Sep 14, 2026, 15:41 UTC

1 63297U 25055G   26257.65367830  .00017592  00000-0  64594-3 0  9999
2 63297  97.6595  43.0031 0007555 195.5761 164.5246 15.27978034 82887

Отслеживайте AIRSAT-06 в реальном времени с AllMySat

Download on the App Store